Regional Weather Roundup
Issued by NWS Sterling, VA

Home | Current Version | Previous Version | Graphics & Text | Print | Product List | Glossary On
Versions: 1 2 3 4 5 6 7 8 9 10 11 12 13 14 15 16 17 18 19 20 21 22 23 24 25 26 27
000
ASUS41 KLWX 250411
RWRLWX

REGIONAL WEATHER ROUNDUP
NATIONAL WEATHER SERVICE BALTIMORE MD/WASHINGTON DC
1200 AM EDT SUN SEP 25 2016

Note: "FAIR" indicates few or no clouds below 12,000 feet
with no significant weather and/or obstructions to visibility.
 TC=TEMPERATURE CELSIUS

 * =Non NWS site. Station does not report precipitation (e.g. rain,
    snow, etc.), thunder, or fog.

DCZ001-MDZ009-015-VAZ040>042-051-053>054-250500-
WASHINGTON METRO

CITY           SKY/WX    TMP DP  RH WIND       PRES   REMARKS
WASHINGTON NAT PTCLDY    66  62  87 NE5       30.16R
DULLES         PTCLDY    59  57  93 CALM      30.16S
ANDREWS AFB    CLEAR     57  55  94 NE3       30.14S
FT BELVOIR     CLEAR     61  59  94 CALM      30.15R
QUANTICO         N/A     68  62  81 SE10      30.16R
COLLEGE PARK*  CLEAR     57  55  94 CALM      30.15S
LEESBURG*      CLEAR     63  63 100 CALM      30.17F
MANASSAS*      CLEAR     64  63  94 CALM      30.16S
GAITHERSBURG*  CLEAR     55  54  94 CALM      30.20S

$$

MDZ006>007-011-014-250500-
BALTIMORE METRO

CITY           SKY/WX    TMP DP  RH WIND       PRES   REMARKS
BWI AIRPORT    PTCLDY    58  57  97 CALM      30.15S
MD SCIENCE CTR   N/A     66  57  72 MISG      30.16S
ANNAPOLIS      CLEAR     66  64  93 NW3       30.15S
FORT MEADE*    CLEAR     54  54 100 CALM      30.18S

$$

MDZ012-015-019>023-250500-
MARYLAND EASTERN SHORE

CITY           SKY/WX    TMP DP  RH WIND       PRES   REMARKS
OCEAN CITY     CLEAR     61  56  83 N5        30.13S
SALISBURY      FOG       59  59 100 CALM      30.14S VSB 1/2
BAY BRIDGE AP* CLEAR     61  59  94 MISG      30.15S
CAMBRIDGE*     CLEAR     57  55  94 CALM      30.14S

$$

MDZ017>025-250500-
SOUTHERN MARYLAND

CITY           SKY/WX    TMP DP  RH WIND       PRES   REMARKS
PATUXENT RIVER CLEAR     64  60  87 E6        30.14R
ST INIGOES     MOCLDY    65  62  90 NE3       30.13S
LEONARDTOWN*   CLEAR     61  59  94 CALM      30.16R

$$

MDZ003>005-250500-
NORTH CENTRAL MARYLAND

CITY           SKY/WX    TMP DP  RH WIND       PRES   REMARKS
FREDERICK*     NOT AVBL
HAGERSTOWN APT CLEAR     60  44  55 N6        30.17R

$$

MDZ501>502-250500-
WESTERN MARYLAND

CITY           SKY/WX    TMP DP  RH WIND       PRES   REMARKS
OAKLAND*       CLEAR     52  48  87 CALM      30.22S
CUMBERLAND*    CLEAR     61  55  82 CALM      30.21R

$$

VAZ025>031-250500-
SHENANDOAH VALLEY

CITY           SKY/WX    TMP DP  RH WIND       PRES   REMARKS
WINCHESTER*    CLOUDY    63  54  72 CALM      30.16S
FRONT ROYAL*   CLOUDY    63  61  94 CALM      30.15S
LURAY*         CLOUDY    66  59  77 N3        30.16S
NEW MARKET*    CLOUDY   N/A N/A N/A N3        30.16R
STAUNTON*      CLOUDY    68  60  76 NE3       30.18S
WAYNESBORO*    CLOUDY    68  63  82 CALM      30.17R

$$

WVZ021-048>050-054>055-250500-
EASTERN WEST VIRGINIA PANHANDLE

CITY           SKY/WX    TMP DP  RH WIND       PRES   REMARKS
MARTINSBURG    CLEAR     57  50  77 CALM      30.16R
PETERSBURG*    CLOUDY    67  60  77 NW3       30.17S

$$

VAZ036>039-050-250500-
CENTRAL FOOTHILLS

CITY           SKY/WX    TMP DP  RH WIND       PRES   REMARKS
CHARLOTTESVILL CLOUDY    71  65  81 E3        30.14S
CULPEPER*      CLOUDY    66  64  93 CALM      30.16S
ORANGE*          N/A     68  68 100 CALM      30.16S
GORDONSVILLE*  CLOUDY    68  64  88 CALM      30.14S
WARRENTON*     FAIR      63  57  81 CALM      30.15S

$$

VAZ055>057-250500-
NORTH AND CENTRAL PIEDMONT

CITY           SKY/WX    TMP DP  RH WIND       PRES   REMARKS
FREDERICKSBRG* CLOUDY    67  64  88 E3        30.14S
STAFFORD*      PTCLDY    63  62  94 CALM      30.19R

$$

NCZ024-NYZ072-PAZ021-071-VAZ022-071-250500-
OTHER REGIONAL OBSERVATIONS

CITY           SKY/WX    TMP DP  RH WIND       PRES   REMARKS
NEW YORK CITY  CLEAR     61  44  53 VRB3      30.18S
PHILADELPHIA   CLEAR     62  44  51 NE6       30.15F
PITTSBURGH     CLEAR     59  50  72 NE7       30.18F
ROANOKE        PTCLDY    72  68  87 SE7       30.15R
RICHMOND       CLOUDY    68  64  87 NE7       30.13S
RALEIGH        PTCLDY    72  69  90 CALM      30.05S

$$

ANZ530>537-250500-
MARINE OBSERVATIONS

STATION/POSITION TIME  TEMP    WIND        PRES
                       AIR SEA DIR/SP/G
                 (UTC) (F)     (DEG/KT/KT) (MB)
THOMAS PT LIGHT  0400   67 76   80/  3/  3 1022.2S
BALT KEY BRIDGE  0348   66     250/  3/  3 1021.1R
COVE POINT       0348   65     130/  7/  8 1021.3R
LEWISETTA        0348   69 76   80/ 12/ 15 1020.0S
SOLOMONS ISLAND  0348   67 76   80/  7/ 10   N/A
PINEY POINT      0348           70/  4/  5   N/A

$$





USA.gov is the U.S. government's official web portal to all federal, state and local government web resources and services.